Regional Weather Roundup
Issued by NWS Wilmington, NC

Home | Current Version | Previous Version | Text Only | Print | Product List | Glossary On
Versions: 1 2 3 4 5 6 7 8 9 10 11 12 13 14 15 16 17 18 19 20 21 22 23 24 25 26 27 28 29 30 31 32 33 34 35 36 37 38 39 40 41 42 43 44 45 46 47 48 49 50
000
ASUS42 KILM 301213
RWRILM
RWRILM
REGIONAL HOURLY WEATHER ROUNDUP
NATIONAL WEATHER SERVICE WILMINGTON NC
800 AM EDT TUE JUN 30 2015

NOTE: "FAIR" INDICATES FEW OR NO CLOUDS BELOW 12,000 FEET WITH NO
SIGNIFICANT WEATHER AND/OR OBSTRUCTIONS TO VISIBILITY.

...............WFO WILMINGTON COUNTY WARNING AREA...............

......COASTAL NC AND SC COUNTIES......

CITY           SKY/WX    TMP DP  RH WIND       PRES   REMARKS
WILMINGTON     SUNNY     77  69  76 W7        30.00R
N MYRTLE BEACH SUNNY     78  68  71 W7        30.00R
MYRTLE BEACH   SUNNY     79  66  65 W12       30.02R

......INLAND NC AND SC COUNTIES.......

CITY           SKY/WX    TMP DP  RH WIND       PRES   REMARKS
LUMBERTON      SUNNY     74  66  76 SW7       29.99R
ELIZABETHTOWN  SUNNY     73  69  86 SW5       30.00R
WHITEVILLE     SUNNY     74  69  83 CALM      30.00R
FLORENCE       SUNNY     74  66  76 SW8       29.99R
DARLINGTON     SUNNY     72  63  73 S7        30.00R

....................REST OF NORTH CAROLINA......................

.........EASTERN NC.........

CITY           SKY/WX    TMP DP  RH WIND       PRES   REMARKS
CAPE HATTERAS  SUNNY     79  72  79 SW8       29.99R
JACKSONVILLE   SUNNY     73  66  78 W7        29.99S
MOREHEAD CITY  SUNNY     80  71  74 W10       29.99R
KENANSVILLE    SUNNY     73  68  85 CALM      30.00R
NEW BERN       SUNNY     74  69  85 SW7       30.00R
ELIZABETH CITY SUNNY     77  73  87 S9        29.97R

.........CENTRAL NC.........

CITY           SKY/WX    TMP DP  RH WIND       PRES   REMARKS
RALEIGH DURHAM MOSUNNY   74  63  68 S5        29.97R
ROCKY MOUNT    SUNNY     74  68  81 S6        29.97R
ROANOKE RAPIDS NOT AVBL
FAYETTEVILLE   SUNNY     73  65  75 SW8       29.99R
HOFFMAN        SUNNY     72  63  72 S6        30.02R

.........WESTERN NC.........

CITY           SKY/WX    TMP DP  RH WIND       PRES   REMARKS
CHARLOTTE      MOSUNNY   74  62  66 SW6       29.97S
GREENSBORO     PTSUNNY   73  61  65 SW7       29.96R
HICKORY        NOT AVBL
BOONE          NOT AVBL
ASHEVILLE      NOT AVBL

.....................REST OF SOUTH CAROLINA.....................

.........EASTERN SC.........

CITY           SKY/WX    TMP DP  RH WIND       PRES   REMARKS
CHARLESTON     MOSUNNY   77  66  68 W7        30.01S
BEAUFORT MCAS  MOSUNNY   79  70  74 SW12      30.03R
HILTON HEAD    SUNNY     77  70  78 SW6       30.04S

.........CENTRAL SC.........

CITY           SKY/WX    TMP DP  RH WIND       PRES   REMARKS
COLUMBIA       MOSUNNY   75  63  66 W6        29.99R
ORANGEBURG     SUNNY     72  65  78 SW6       30.01R
SUMTER SHAW    SUNNY     75  64  67 SW8       29.98R

.........WESTERN SC.........

CITY           SKY/WX    TMP DP  RH WIND       PRES   REMARKS
GREENVILLE     NOT AVBL
ROCK HILL      SUNNY     73  64  73 SW7       29.98R
ANDERSON       MOSUNNY   74  66  76 SW5       29.99S
CLEMSON        NOT AVBL
GREENWOOD      SUNNY     74  65  73 SW8       30.01R


...................COASTAL AND OFFSHORE REPORTS..................

................LOCAL PIERS AND NC RESERVE................


STATION/POSITION TIME  SKY/WX   TEMP    WIND        PRES    VSBY
                                AIR SEA DIR/SP/G
                 (UTC)          (F)     (DEG/KT/KT) (MB)    (MI)
JOHNY MRCER PIER 1100            76 81  250/  9/ 12 1014.8R
NC RESRV MASNBRO NOT AVBL
OCEAN CREST PIER NOT AVBL
SPRINGMAID  PIER 1100            76 83  230/  7/  9 1015.4R


................COASTAL AND OFFSHORE BUOYS................


STATION/POSITION TIME  SKY/WX   TEMP    WIND        PRES    VSBY
                                AIR SEA DIR/SP/G
                 (UTC)          (F)     (DEG/KT/KT) (MB)    (MI)
DIMNDSHOAL 41025 1150            80 81  250/ 10/ 12 1015.6R
WVE H/P(F/S)=  3/ 8 WND WVE H/P(F/S)=  2/ 5 SWL H/P/D(F/S/D)=  3/170/ 8

CAPE LOOKOUT     1200            80     240/  9/ 11 1015.3R
ONSLOW BAY 41036 NOT AVBL
5 WRITEBCH 41038 1108            79 79  260/ 12/ 16 1015.1R
MASONBORO  41110 1119               79                N/A
WVE H/P(F/S)=  3/ 7 WND WVE H/P(F/S)=  3/ 7

WILM HARBR 41108 1111               81                N/A
WVE H/P(F/S)=  4/ 5 WND WVE H/P(F/S)=  3/ 5

27WRITEBCH 41037 NOT AVBL
FRYING PAN 41013 1150            81 80  240/ 14/ 16 1016.1R
WVE H/P(F/S)=  4/ 7 WND WVE H/P(F/S)=  3/ 5 SWL H/P/D(F/S/D)=  2/140/ 7

SUNST NRSH 41024 1108            81     260/ 12/ 16 1015.3R
CAPRS NRSH 41029 1108            80     260/ 14/ 17 1016.2R
EDISTO     41004 1150            81 82  250/ 14/ 16 1015.9R
WVE H/P(F/S)=  4/ 8 WND WVE H/P(F/S)=  3/ 7 SWL H/P/D(F/S/D)=  2/ 8



..........OFFSHORE BUOYS BEYOND 100 NM OFFSHORE...........
.....IN A TRIANGLE---HAT TO BERMUDA TO BAHAMAS TO HAT.....


STATION/POSITION TIME  SKY/WX   TEMP    WIND        PRES    VSBY
                                AIR SEA DIR/SP/G
                 (UTC)          (F)     (DEG/KT/KT) (MB)    (MI)
150E HAT   41001 NOT AVBL
W BERMUDA  41048 1150            80 80  170/ 16/ 19 1020.4R
WVE H/P(F/S)=  7/ 7 WND WVE H/P(F/S)=  5/ 7 SWL H/P/D(F/S/D)=  3/230/ 8

ATLANTIC S 41049 1150            82 83  120/ 10/ 12 1025.9R
WVE H/P(F/S)=  4/ 8 WND WVE H/P(F/S)=  2/ 3 SWL H/P/D(F/S/D)=  3/110/ 8

E BAHAMAS  41046 1150            82 83  100/ 17/ 21 1021.7F
WVE H/P(F/S)=  5/ 8 WND WVE H/P(F/S)=  3/ 6 SWL H/P/D(F/S/D)=  3/120/ 8

NE BAHAMAS 41047 1150            82 83  170/ 17/ 21 1021.5R
WVE H/P(F/S)=  5/ 8 WND WVE H/P(F/S)=  3/ 7 SWL H/P/D(F/S/D)=  2/110/ 8

120E CANVRL41010 1120            82 84  250/ 17/ 21 1018.7R

END


USA.gov is the U.S. government's official web portal to all federal, state and local government web resources and services.